Overview Statistics Trail Chart Weather Telemetry Raw packets
 

This is the latest recevied weather packets stored in our database for station/object KD0TNH-13. If no packets are shown the sender has not sent any weather packets the latest 10 day(s).

<< 99 100 101 102 103 104 105 >>
Time Temp. Humidity Pressure Rain* Wind** Luminosity Snow
1787824233 17.78° C 94% 29.1 hPa 0 mm 0.89 m/s, 192° - -
1787823932 17.78° C 94% 29.1 hPa 0 mm 0.89 m/s, 179° - -
1787823631 17.78° C 95% 29.1 hPa 0 mm 0.89 m/s, 197° - -
1787823329 17.78° C 94% 29.1 hPa 0 mm 0.45 m/s, 174° - -
1787823028 18.33° C 94% 29.1 hPa 0 mm 1.79 m/s, 182° - -
1787822728 18.33° C 94% 29.1 hPa 0 mm 0.89 m/s, 187° - -
1787822427 18.33° C 93% 29.1 hPa 0 mm 1.79 m/s, 176° - -
1787822126 18.33° C 94% 29.1 hPa 0 mm 1.79 m/s, 189° - -
1787821825 18.33° C 93% 29.1 hPa 0 mm 1.79 m/s, 178° - -
1787821525 18.33° C 94% 29.1 hPa 0 mm 0.89 m/s, 201° - -
1787821224 18.33° C 96% 29.1 hPa 0 mm 1.79 m/s, 187° - -
1787820923 18.33° C 96% 29.1 hPa 0 mm 1.34 m/s, 189° - -
1787820623 18.33° C 96% 29.1 hPa 0 mm 1.34 m/s, 188° - -
1787820322 18.33° C 95% 29.1 hPa 0 mm 0.89 m/s, 177° - -
1787820021 18.33° C 94% 29.1 hPa 0 mm 1.34 m/s, 187° - -
1787819721 18.33° C 94% 29.1 hPa 0 mm 1.79 m/s, 179° - -
1787819421 18.33° C 95% 29.1 hPa 0 mm 1.79 m/s, 185° - -
1787819121 18.33° C 95% 29.1 hPa 0 mm 1.79 m/s, 188° - -
1787818820 18.33° C 96% 29.1 hPa 0 mm 0.89 m/s, 169° - -
1787818519 18.33° C 96% 29.1 hPa 0 mm 0.89 m/s, 181° - -
1787818218 18.33° C 96% 29.1 hPa 0 mm 0.45 m/s, 179° - -
1787817918 18.33° C 96% 29.1 hPa 0 mm 0.45 m/s, 179° - -
1787817617 18.33° C 96% 29.1 hPa 0 mm 0.45 m/s, 185° - -
1787817316 18.33° C 96% 29.1 hPa 0 mm 0.89 m/s, 178° - -
1787817015 18.33° C 96% 29.1 hPa 0 mm 0.45 m/s, 186° - -

* Rain latest hour (hover to see other rain measurements)
** Current wind speed in m/s (hover to see current wind gust speed)